Weaver, AL (36277)

11:31 PM CDT on May 28, 2015 (GMT -0500)
saks | | Change Station
CLOSE
Current Station
Personal Weather Station
Location: Anniston, AL
Elevation: 692 ft
Nearby Weather Stations

Elev 692 ft 33.72 °N, 85.86 °W | Updated 1 minute ago

Overcast
Overcast
67.5 °F
Feels Like 67.5 °F
N
0.0
Wind Variable Wind from East

Today
High -- | Low -- °F
--% Chance of Precip.
Yesterday
High -- | Low -- °F
Precip. -- in
5:35 AM 7:46 PM
Waxing Gibbous, 81% visible
Pressure 30.15 in
Visibility 10.0 miles
Clouds Clear
Dew Point 67 °F
Humidity 99%
Rainfall 0.40 in
Snow Depth Not available.
UV 0 out of 12
Pollen 4.80 out of 12
Air Quality Not available.
Flu Activity Sporadic
METAR KANB 290353Z AUTO 02003KT 10SM CLR 21/19 A3017 RMK AO2 SLP208 T02110194

More Conditions Fewer Conditions

Pressure 30.15 in
Visibility 10.0 miles
Clouds Clear
Dew Point 67 °F
Humidity 99%
Rainfall 0.40 in
Snow Depth Not available.
UV 0 out of 12
Pollen 4.80 out of 12
Air Quality Not available.
Flu Activity Sporadic
METAR KANB 290353Z AUTO 02003KT 10SM CLR 21/19 A3017 RMK AO2 SLP208 T02110194

More Conditions Fewer Conditions

10-Day Weather Forecast

Almanac

Astronomy

May. 28, 2015 Rise Set
Actual Time
Civil Twilight
Nautical Twilight
Astronomical Twilight
Moon
Length of Visible Light
Length of Day
Tomorrow will be .
, % of the Moon is Illuminated

Today's Extremes

State Highs State Lows

Community

WunderPhotos

Upload Photos

1,825,191 photos uploaded!

WunderBlogs® & News

Nearby

Air Quality

  Air Quality AQ Index Pollutant
Not available.

Snow Depth

Station Depth Elevation

Earthquake Activity

City Distance Mag. Time & Date
Minimum magnitude displayed is 2.5.

Coastal Water Temperatures

Place Temperature

Stations

Nearby Weather Stations

Station Location Temp. Windchill Dew Point Humidity Wind Precip. Elev Updated Type